Погода в Акабе

Иордания     29°32′18″N   35°00′15″E
темп.,
°C
ветер,
м/с
пор.,
м/с
влажн.,
%
обл.,
%
осадки,
мм/ч
давл.,
гПа
погр.,
м
18 мая, ср
ср1800:00+23с58440 0.0 1014216
03:00+21с45470 0.0 101476
06:00+20с45480 0.0 1013112
09:00+24с56340 0.0 1014520
12:00+29ссз67220 0.0 1012725
15:00+32с78140 0.0 1010860
18:00+31ссв89150 0.0 1009927
21:00+27ссв452259 0.0 101166
19 мая, чт
чт1900:00+24с45360 0.0 101379
03:00+22с45410 0.0 101360
06:00+21с44420 0.0 101459
09:00+25ссз56330 0.0 1014486
12:00+30ссз66181 0.0 1013771
15:00+33с771147 0.0 10101078
18:00+32ссв891326 0.0 10101088
21:00+27с8122258 0.0 1012326
20 мая, пт
пт2000:00+24с57282 0.0 1014117
03:00+23с3431100 0.0 101334
06:00+22с343120 0.0 101334
09:00+27с441935 0.0 1013446
12:00+33ссз341197 0.0 10121446
15:00+35ссз65995 0.0 10091375
18:00+33с881143 0.0 10091089
21:00+29ссв571758 0.0 101082
21 мая, сб
сб2100:00+27ссв4620100 0.0 101090
03:00+26ссв4523100 0.0 101047
06:00+26св4424100 0.0 101031
09:00+30св341974 0.0 1010604
12:00+35ссз341326 0.0 10081610
15:00+35ссз22155 0.0 10071212
18:00+34ссз87151 0.0 10081231
21:00+29ссв23255 0.0 101023
22 мая, вс
вс2200:00+27с34345 0.0 101045
03:00+23ссз45520 0.0 1011164
06:00+20с35590 0.0 1012382
09:00+23с45450 0.0 1012734
12:00+27с56280 0.0 10111109
15:00+30ссз56170 0.0 10091665
18:00+30сз78140 0.0 10081828
21:00+26сз711240 0.0 1010355